When you browse on this site, cookies collect data to enhance your experience and personalize the content and advertising you see.
Visit our Privacy Policy to learn more. By continuing to use the site, you agree to this use of cookies and data.
  • en Suisse
  • Liste des pays
  • À 7 jours
  • Température de l'eau
  • Carte météo
  • Widgets météo
  • user-avatar
    Se connecter

    Météo par heure à Bietigheim-Bissingen

    Ce jour, 5 Juin, Vendredi

    Heure Température Précipitation Vent Pression Humidité
    00:00 +11°C° 0.2 mm 3 m/s 727 mmHg 89%
    01:00 +11°C° 0.2 mm 3 m/s 728 mmHg 90%
    02:00 +10°C° 0 mm 3 m/s 728 mmHg 91%
    03:00 +10°C° 0 mm 3 m/s 728 mmHg 91%
    04:00 +9°C° 0 mm 2 m/s 728 mmHg 92%
    05:00 +9°C° 0.1 mm 3 m/s 728 mmHg 90%
    06:00 +10°C° 0.1 mm 3 m/s 729 mmHg 88%
    07:00 +10°C° 0.1 mm 3 m/s 729 mmHg 86%
    08:00 +11°C° 0.2 mm 3 m/s 729 mmHg 83%
    09:00 +11°C° 0.2 mm 3 m/s 729 mmHg 79%
    10:00 +11°C° 0.2 mm 3 m/s 729 mmHg 75%
    11:00 +13°C° 0.1 mm 4 m/s 728 mmHg 72%
    12:00 +14°C° 0.1 mm 5 m/s 728 mmHg 70%
    13:00 +15°C° 0.1 mm 5 m/s 728 mmHg 67%
    14:00 +14°C° 0.3 mm 6 m/s 728 mmHg 72%
    15:00 +13°C° 0.3 mm 6 m/s 728 mmHg 76%
    16:00 +11°C° 0.3 mm 6 m/s 727 mmHg 81%
    17:00 +11°C° 0.3 mm 6 m/s 727 mmHg 83%
    18:00 +11°C° 0.3 mm 7 m/s 728 mmHg 84%
    19:00 +11°C° 0.3 mm 7 m/s 728 mmHg 85%
    20:00 +11°C° 1 mm 6 m/s 729 mmHg 87%
    21:00 +11°C° 1 mm 6 m/s 729 mmHg 89%
    22:00 +10°C° 1 mm 5 m/s 730 mmHg 91%
    23:00 +11°C° 0.3 mm 4 m/s 730 mmHg 91%

    Demain, 6 Juin, Samedi

    Heure Température Précipitation Vent Pression Humidité
    00:00 +11°C° 0.3 mm 4 m/s 730 mmHg 91%
    01:00 +10°C° 0.3 mm 3 m/s 730 mmHg 91%
    02:00 +10°C° 0.8 mm 2 m/s 731 mmHg 92%
    03:00 +10°C° 0.8 mm 2 m/s 731 mmHg 93%
    04:00 +10°C° 0.8 mm 2 m/s 731 mmHg 94%
    05:00 +10°C° 1 mm 2 m/s 731 mmHg 94%
    06:00 +10°C° 1 mm 2 m/s 731 mmHg 94%
    07:00 +10°C° 1 mm 2 m/s 731 mmHg 94%
    08:00 +12°C° 0.9 mm 2 m/s 731 mmHg 94%
    09:00 +12°C° 0.9 mm 2 m/s 731 mmHg 93%
    10:00 +12°C° 0.9 mm 2 m/s 731 mmHg 93%
    11:00 +12°C° 0.2 mm 3 m/s 731 mmHg 90%
    12:00 +13°C° 0.2 mm 4 m/s 731 mmHg 87%
    13:00 +14°C° 0.2 mm 4 m/s 731 mmHg 84%
    14:00 +14°C° 0.2 mm 4 m/s 731 mmHg 81%
    15:00 +15°C° 0.2 mm 4 m/s 731 mmHg 78%
    16:00 +15°C° 0.2 mm 4 m/s 731 mmHg 75%
    17:00 +15°C° 0.1 mm 4 m/s 732 mmHg 77%
    18:00 +16°C° 0.1 mm 3 m/s 732 mmHg 79%
    19:00 +16°C° 0.1 mm 3 m/s 732 mmHg 80%
    20:00 +13°C° 0 mm 3 m/s 732 mmHg 82%
    21:00 +13°C° 0 mm 2 m/s 733 mmHg 84%
    22:00 +12°C° 0 mm 2 m/s 733 mmHg 86%
    23:00 +10°C° 0 mm 2 m/s 733 mmHg 86%

    Après-demain, 7 Juin, Dimanche

    Heure Température Précipitation Vent Pression Humidité
    00:00 +10°C° 0 mm 2 m/s 734 mmHg 86%
    01:00 +10°C° 0 mm 1 m/s 734 mmHg 86%
    02:00 +10°C° 0.1 mm 2 m/s 734 mmHg 86%
    03:00 +10°C° 0.1 mm 2 m/s 734 mmHg 86%
    04:00 +10°C° 0.1 mm 2 m/s 735 mmHg 86%
    05:00 +10°C° 0 mm 2 m/s 735 mmHg 83%
    06:00 +12°C° 0 mm 2 m/s 735 mmHg 79%
    07:00 +12°C° 0 mm 3 m/s 736 mmHg 76%
    08:00 +13°C° 0 mm 3 m/s 736 mmHg 69%
    09:00 +14°C° 0 mm 3 m/s 736 mmHg 62%
    10:00 +16°C° 0 mm 3 m/s 736 mmHg 55%
    11:00 +17°C° 0 mm 2 m/s 736 mmHg 53%
    12:00 +18°C° 0 mm 2 m/s 736 mmHg 50%
    13:00 +19°C° 0 mm 2 m/s 736 mmHg 47%
    14:00 +20°C° 0 mm 1 m/s 736 mmHg 48%
    15:00 +20°C° 0 mm 1 m/s 736 mmHg 48%
    16:00 +20°C° 0 mm 1 m/s 736 mmHg 49%
    17:00 +19°C° 0 mm 1 m/s 736 mmHg 55%
    18:00 +19°C° 0 mm 1 m/s 736 mmHg 62%
    19:00 +18°C° 0 mm 1 m/s 736 mmHg 69%
    20:00 +15°C° 0 mm 1 m/s 736 mmHg 72%
    21:00 +14°C° 0 mm 1 m/s 736 mmHg 75%
    22:00 +13°C° 0 mm 1 m/s 737 mmHg 78%
    23:00 +12°C° 0 mm 1 m/s 737 mmHg 80%

    8 Juin, Lundi

    Heure Température Précipitation Vent Pression Humidité
    00:00 +12°C° 0 mm 1 m/s 737 mmHg 83%
    01:00 +11°C° 0 mm 1 m/s 737 mmHg 86%
    02:00 +11°C° 0 mm 1 m/s 737 mmHg 87%
    03:00 +11°C° 0 mm 1 m/s 736 mmHg 87%
    04:00 +9°C° 0 mm 0 m/s 736 mmHg 88%
    05:00 +11°C° 0 mm 0 m/s 737 mmHg 85%
    06:00 +12°C° 0 mm 0 m/s 737 mmHg 81%
    07:00 +13°C° 0 mm 0 m/s 737 mmHg 78%
    08:00 +14°C° 0.1 mm 0 m/s 737 mmHg 76%
    09:00 +15°C° 0.1 mm 0 m/s 737 mmHg 73%
    10:00 +18°C° 0.1 mm 1 m/s 737 mmHg 70%
    11:00 +18°C° 0.3 mm 1 m/s 737 mmHg 72%
    12:00 +18°C° 0.3 mm 1 m/s 737 mmHg 74%
    13:00 +18°C° 0.3 mm 1 m/s 737 mmHg 76%
    14:00 +18°C° 0.1 mm 1 m/s 737 mmHg 76%
    15:00 +18°C° 0.1 mm 1 m/s 737 mmHg 76%
    16:00 +18°C° 0.1 mm 1 m/s 737 mmHg 75%
    17:00 +18°C° 0 mm 1 m/s 737 mmHg 77%
    18:00 +18°C° 0 mm 1 m/s 737 mmHg 79%
    19:00 +18°C° 0 mm 1 m/s 737 mmHg 80%
    20:00 +14°C° 0 mm 0 m/s 737 mmHg 82%
    21:00 +13°C° 0 mm 0 m/s 738 mmHg 84%
    22:00 +12°C° 0 mm 0 m/s 738 mmHg 87%
    23:00 +12°C° 0 mm 0 m/s 738 mmHg 86%

    9 Juin, Mardi

    Heure Température Précipitation Vent Pression Humidité
    00:00 +12°C° 0 mm 0 m/s 738 mmHg 86%
    01:00 +12°C° 0 mm 0 m/s 738 mmHg 86%
    02:00 +12°C° 0 mm 0 m/s 738 mmHg 86%
    03:00 +12°C° 0 mm 0 m/s 738 mmHg 86%
    04:00 +12°C° 0 mm 0 m/s 738 mmHg 86%
    05:00 +12°C° 0 mm 0 m/s 738 mmHg 86%
    06:00 +14°C° 0 mm 1 m/s 738 mmHg 86%
    07:00 +14°C° 0 mm 1 m/s 739 mmHg 85%
    08:00 +15°C° 0.2 mm 1 m/s 739 mmHg 86%
    09:00 +15°C° 0.2 mm 2 m/s 739 mmHg 87%
    10:00 +15°C° 0.2 mm 2 m/s 739 mmHg 88%
    11:00 +15°C° 0.3 mm 2 m/s 739 mmHg 89%
    12:00 +15°C° 0.3 mm 2 m/s 739 mmHg 89%
    13:00 +14°C° 0.3 mm 3 m/s 739 mmHg 89%
    14:00 +14°C° 0.1 mm 3 m/s 739 mmHg 90%
    15:00 +13°C° 0.1 mm 3 m/s 739 mmHg 90%
    16:00 +13°C° 0.1 mm 3 m/s 739 mmHg 91%
    17:00 +13°C° 0 mm 3 m/s 739 mmHg 91%
    18:00 +13°C° 0 mm 2 m/s 739 mmHg 92%
    19:00 +13°C° 0 mm 2 m/s 739 mmHg 92%
    20:00 +13°C° 0.1 mm 2 m/s 740 mmHg 93%
    21:00 +13°C° 0.1 mm 2 m/s 740 mmHg 94%
    22:00 +12°C° 0.1 mm 2 m/s 740 mmHg 95%
    23:00 +12°C° 0.2 mm 1 m/s 740 mmHg 95%

    10 Juin, Mercredi

    Heure Température Précipitation Vent Pression Humidité
    00:00 +12°C° 0.2 mm 1 m/s 740 mmHg 96%
    01:00 +12°C° 0.2 mm 1 m/s 740 mmHg 96%
    02:00 +12°C° 0.1 mm 1 m/s 740 mmHg 96%
    03:00 +12°C° 0.1 mm 1 m/s 740 mmHg 96%
    04:00 +12°C° 0.1 mm 1 m/s 740 mmHg 96%
    05:00 +12°C° 0 mm 1 m/s 740 mmHg 95%
    06:00 +12°C° 0 mm 1 m/s 741 mmHg 95%
    07:00 +12°C° 0 mm 1 m/s 741 mmHg 94%
    08:00 +13°C° 0 mm 1 m/s 741 mmHg 92%
    09:00 +13°C° 0 mm 1 m/s 741 mmHg 90%
    10:00 +14°C° 0 mm 1 m/s 741 mmHg 88%
    11:00 +15°C° 0 mm 1 m/s 741 mmHg 87%
    12:00 +15°C° 0 mm 2 m/s 741 mmHg 85%
    13:00 +16°C° 0 mm 2 m/s 741 mmHg 83%
    14:00 +16°C° 0.1 mm 2 m/s 741 mmHg 81%
    15:00 +17°C° 0.1 mm 2 m/s 741 mmHg 78%
    16:00 +18°C° 0.1 mm 2 m/s 741 mmHg 75%
    17:00 +18°C° 0.1 mm 2 m/s 741 mmHg 77%
    18:00 +17°C° 0.1 mm 2 m/s 741 mmHg 80%
    19:00 +17°C° 0.1 mm 2 m/s 742 mmHg 83%
    20:00 +16°C° 0.2 mm 2 m/s 742 mmHg 86%
    21:00 +15°C° 0.2 mm 1 m/s 742 mmHg 89%
    22:00 +14°C° 0.2 mm 1 m/s 742 mmHg 92%
    23:00 +14°C° 0.1 mm 1 m/s 742 mmHg 93%
    Voir plus